Regional Weather Roundup
Issued by NWS

Home | Current Version | Previous Version | Graphics & Text | Print | Product List | Glossary On
Versions: 1 2 3 4 5 6 7 8 9 10 11 12 13 14 15 16 17 18 19 20 21 22 23 24 25 26 27 28 29 30 31 32 33 34 35 36 37 38 39 40 41 42 43 44 45 46 47 48 49 50
000
ASUS43 KBIS 181220
RWRND

NORTH DAKOTA REGIONAL WEATHER ROUNDUP
NATIONAL WEATHER SERVICE BISMARCK ND
600 AM CST THU DEC 18 2014

NOTE: "FAIR" INDICATES FEW OR NO CLOUDS BELOW 12,000 FEET WITH NO
SIGNIFICANT WEATHER AND/OR OBSTRUCTIONS TO VISIBILITY.


NDZ001>003-009>011-017-181300-
NORTHWEST NORTH DAKOTA

CITY           SKY/WX    TMP DP  RH WIND       PRES   REMARKS
WILLISTON      CLOUDY    21  17  84 SE7       30.00F WCI  12
6HR MIN TEMP:  20; 6HR MAX TEMP:  21;

MINOT          MOCLDY    15  11  83 SE6       30.06F WCI   6
MINOT AFB      CLOUDY    14  13  98 SE7       30.06S WCI   3
$$

NDZ018>021-031>035-040>046-181300-
SOUTHWEST NORTH DAKOTA

CITY           SKY/WX    TMP DP  RH WIND       PRES   REMARKS
BISMARCK       CLOUDY    16  15  96 S9        30.10F WCI   4
6HR MIN TEMP:  16; 6HR MAX TEMP:  17;

DICKINSON      CLOUDY    21  17  84 S10       29.95F WCI  10
GARRISON         N/A     18  15  88 S7        30.05F WCI   9
6HR MIN TEMP:  13; 6HR MAX TEMP:  18;

HETTINGER ARPT CLOUDY    20  18  92 S6        29.98F WCI  12
$$

NDZ004>008-012>016-024-026-027-054-181300-
NORTHEAST NORTH DAKOTA

CITY           SKY/WX    TMP DP  RH WIND       PRES   REMARKS
GRAND FORKS    PTCLDY     5   1  83 SE5       30.26F WCI  -4
GRND FRKS AFB  PTCLDY     1  -1  94 S2        30.25F
DEVILS LAKE    PTCLDY    10   1  67 SE9       30.14F WCI  -2
$$

NDZ022-023-025-028>030-036>039-047>053-181300-
SOUTHEAST NORTH DAKOTA

CITY           SKY/WX    TMP DP  RH WIND       PRES   REMARKS
FARGO          PTCLDY     8   4  83 CALM      30.26F
6HR MIN TEMP:   7; 6HR MAX TEMP:  10;

JAMESTOWN      CLOUDY    13  10  88 SE7       30.15F WCI   3
$$




USA.gov is the U.S. government's official web portal to all federal, state and local government web resources and services.